Date String (YYYY-MM-DD hh:mm:ss) UTC,Instrument flags,Ambient pressure (hPa),Sample flow (lpm),Bypass flow (lpm),Sample temperature (°C),Ambient temperature (°C),ASC tube jacket temperature (°C),LED temperature (°C),Box temperature (°C),Sample RH (%),Span deviation,Mass concentration (μg/m³),Mass concentration (μg/m³),Mass concentration (μg/m³)
DateTimeUTC,F1_M11,P_M11,Q1_M11,Q2_M11,T1_M11,T2_M11,T3_M11,T4_M11,T5_M11,U1_M11,ZSPAN_M11,X0_M11,X2_M11,X1_M11
2021-12-19 10:00:00,,0824.4,4.99,0.00,22.3,21.7,00.0,31.4,24.0,05.8,0000.0,0006.59,0001.40,0001.12
2021-12-19 10:01:00,,0824.4,5.01,0.00,22.3,21.6,00.0,31.4,23.9,05.8,0000.0,0006.04,0001.38,0001.08
2021-12-19 10:02:00,,0824.3,5.00,0.00,22.3,21.6,00.0,31.4,23.9,05.7,0000.0,0004.03,0001.32,0001.03
2021-12-19 10:03:00,,0824.4,5.00,0.00,22.3,21.6,00.0,31.3,23.9,05.8,0000.0,0003.84,0001.24,0000.97
2021-12-19 10:04:00,,0824.4,5.00,0.00,22.3,21.6,00.0,31.3,23.9,05.8,0000.0,0003.88,0001.21,0000.93
2021-12-19 10:05:00,,0824.4,5.01,0.00,22.3,21.5,00.0,31.3,23.9,05.7,0000.0,0004.07,0001.17,0000.90
2021-12-19 10:06:00,,0824.4,5.01,0.00,22.3,21.5,00.0,31.3,23.9,05.7,0000.0,0002.81,0001.16,0000.87
2021-12-19 10:07:00,,0824.4,5.00,0.00,22.3,21.5,00.0,31.3,23.9,05.7,0000.0,0002.86,0001.17,0000.85
2021-12-19 10:08:00,,0824.4,4.98,0.00,22.3,21.5,00.0,31.3,23.9,05.7,0000.0,0002.90,0001.19,0000.86
2021-12-19 10:09:00,,0824.4,5.01,0.00,22.2,21.5,00.0,31.3,23.9,05.7,0000.0,0002.61,0001.15,0000.83
2021-12-19 10:10:00,,0824.4,4.99,0.00,22.3,21.9,00.0,31.3,24.0,05.7,0000.0,0002.65,0001.12,0000.80
2021-12-19 10:11:00,,0824.5,5.00,0.00,22.4,22.8,00.0,31.4,24.3,05.7,0000.0,0002.66,0001.10,0000.81
2021-12-19 10:12:00,,0824.5,5.01,0.00,22.6,23.2,00.0,31.4,24.5,05.6,0000.0,0002.53,0001.11,0000.83
2021-12-19 10:13:00,,0824.5,5.00,0.00,22.6,23.0,00.0,31.4,24.5,05.6,0000.0,0002.50,0001.12,0000.83
2021-12-19 10:14:00,,0824.4,5.00,0.00,22.6,22.8,00.0,31.4,24.4,05.6,0000.0,0002.59,0001.16,0000.85
2021-12-19 10:15:00,,0824.5,5.01,0.00,22.6,22.6,00.0,31.5,24.4,05.6,0000.0,0002.41,0001.11,0000.83
2021-12-19 10:16:00,,0824.5,4.99,0.00,22.6,22.5,00.0,31.5,24.4,05.6,0000.0,0002.07,0001.07,0000.80
2021-12-19 10:17:00,,0824.4,4.99,0.00,22.6,22.3,00.0,31.5,24.4,05.6,0000.0,0002.81,0001.02,0000.78
2021-12-19 10:18:00,,0824.5,5.01,0.00,22.6,22.2,00.0,31.5,24.3,05.7,0000.0,0003.68,0000.96,0000.75
2021-12-19 10:19:00,,0824.4,4.99,0.00,22.6,22.1,00.0,31.5,24.3,05.6,0000.0,0003.97,0000.93,0000.74
2021-12-19 10:20:00,,0824.5,5.01,0.00,22.6,22.1,00.0,31.5,24.3,05.7,0000.0,0004.91,0000.88,0000.71
2021-12-19 10:21:00,,0824.5,4.99,0.00,22.6,22.0,00.0,31.5,24.3,05.7,0000.0,0004.67,0000.85,0000.69
2021-12-19 10:22:00,,0824.5,5.01,0.00,22.6,22.0,00.0,31.5,24.3,05.7,0000.0,0004.50,0000.84,0000.67
2021-12-19 10:23:00,,0824.4,4.99,0.00,22.6,21.9,00.0,31.5,24.3,05.7,0000.0,0004.51,0000.82,0000.65
2021-12-19 10:24:00,,0824.4,5.00,0.00,22.5,21.9,00.0,31.5,24.2,05.7,0000.0,0004.53,0000.81,0000.64
2021-12-19 10:25:00,,0824.5,4.99,0.00,22.5,21.8,00.0,31.5,24.2,06.0,0000.0,0004.59,0000.85,0000.70
2021-12-19 10:26:00,,0824.5,5.01,0.00,22.5,21.8,00.0,31.5,24.1,06.0,0000.0,0004.83,0001.03,0000.85
2021-12-19 10:27:00,,0824.4,4.98,0.00,22.5,21.8,00.0,31.5,24.1,05.9,0000.0,0005.02,0001.16,0000.95
2021-12-19 10:28:00,,0824.5,5.01,0.00,22.5,21.7,00.0,31.5,24.1,06.0,0000.0,0004.35,0001.38,0001.11
2021-12-19 10:29:00,,0824.4,4.99,0.00,22.4,21.7,00.0,31.5,24.1,06.0,0000.0,0004.51,0001.72,0001.33
2021-12-19 10:30:00,,0824.3,5.00,0.00,22.4,21.6,00.0,31.5,24.1,05.9,0000.0,0005.31,0001.94,0001.50
2021-12-19 10:31:00,,0824.3,5.00,0.00,22.4,21.6,00.0,31.4,24.1,05.8,0000.0,0004.54,0002.06,0001.60
2021-12-19 10:32:00,,0824.4,5.01,0.00,22.4,21.5,00.0,31.4,24.0,05.7,0000.0,0004.59,0002.10,0001.63
2021-12-19 10:33:00,,0824.5,5.01,0.00,22.3,21.5,00.0,31.4,24.0,05.6,0000.0,0004.58,0002.10,0001.67
2021-12-19 10:34:00,,0824.2,5.00,0.00,22.3,21.5,00.0,31.4,24.0,05.5,0000.0,0004.68,0002.17,0001.71
2021-12-19 10:35:00,,0824.2,4.99,0.00,22.3,21.5,00.0,31.4,24.0,05.5,0000.0,0004.87,0002.25,0001.75
2021-12-19 10:36:00,,0824.3,5.01,0.00,22.3,21.5,00.0,31.4,24.0,05.5,0000.0,0004.82,0002.24,0001.75
2021-12-19 10:37:00,,0824.3,5.01,0.00,22.4,22.2,00.0,31.4,24.1,05.4,0000.0,0004.68,0002.13,0001.66
2021-12-19 10:38:00,,0824.4,5.00,0.00,22.5,23.1,00.0,31.4,24.4,05.4,0000.0,0004.65,0002.07,0001.60
2021-12-19 10:39:00,,0824.4,5.00,0.00,22.7,23.6,00.0,31.5,24.7,05.4,0000.0,0004.51,0001.96,0001.51
2021-12-19 10:40:00,,0824.3,5.00,0.00,22.7,23.4,00.0,31.5,24.7,05.4,0000.0,0003.61,0001.73,0001.40
2021-12-19 10:41:00,,0824.3,5.00,0.00,22.7,23.1,00.0,31.5,24.6,05.5,0000.0,0002.45,0001.61,0001.34
2021-12-19 10:42:00,,0824.2,5.01,0.00,22.7,22.9,00.0,31.5,24.6,05.5,0000.0,0002.41,0001.64,0001.37
2021-12-19 10:43:00,,0824.4,4.99,0.00,22.7,22.7,00.0,31.6,24.5,05.6,0000.0,0002.55,0001.70,0001.41
2021-12-19 10:44:00,,0824.2,5.00,0.00,22.7,22.5,00.0,31.6,24.5,05.7,0000.0,0002.72,0001.75,0001.45
2021-12-19 10:45:00,,0824.2,4.99,0.00,22.7,22.4,00.0,31.6,24.4,05.7,0000.0,0002.68,0001.75,0001.47
2021-12-19 10:46:00,,0824.2,5.00,0.00,22.7,22.3,00.0,31.6,24.4,05.6,0000.0,0003.82,0001.80,0001.53
2021-12-19 10:47:00,,0824.3,4.99,0.00,22.7,22.2,00.0,31.6,24.4,05.6,0000.0,0004.18,0001.86,0001.57
2021-12-19 10:48:00,,0824.2,5.01,0.00,22.7,22.1,00.0,31.6,24.4,05.6,0000.0,0004.26,0001.90,0001.61
2021-12-19 10:49:00,,0824.2,5.00,0.00,22.7,22.1,00.0,31.6,24.4,05.6,0000.0,0004.50,0001.95,0001.66
2021-12-19 10:50:00,,0824.2,4.99,0.00,22.7,22.1,00.0,31.6,24.4,05.6,0000.0,0005.27,0002.01,0001.69
2021-12-19 10:51:00,,0824.3,5.00,0.00,22.7,22.0,00.0,31.6,24.4,05.6,0000.0,0005.31,0002.01,0001.69
2021-12-19 10:52:00,,0824.2,5.00,0.00,22.7,22.0,00.0,31.6,24.4,05.6,0000.0,0005.36,0002.02,0001.67
2021-12-19 10:53:00,,0824.3,5.00,0.00,22.6,22.0,00.0,31.6,24.3,05.7,0000.0,0005.43,0002.03,0001.67
2021-12-19 10:54:00,,0824.2,5.00,0.00,22.6,21.9,00.0,31.6,24.3,05.7,0000.0,0005.55,0002.10,0001.72
2021-12-19 10:55:00,,0824.1,5.00,0.00,22.6,21.9,00.0,31.6,24.2,05.7,0000.0,0005.51,0002.14,0001.74
2021-12-19 10:56:00,,0824.2,5.00,0.00,22.6,21.9,00.0,31.6,24.2,05.7,0000.0,0005.56,0002.16,0001.76
2021-12-19 10:57:00,,0824.3,5.01,0.00,22.6,21.8,00.0,31.6,24.2,05.7,0000.0,0004.57,0002.14,0001.74
2021-12-19 10:58:00,,0824.2,4.99,0.00,22.6,21.8,00.0,31.6,24.3,05.7,0000.0,0004.10,0002.12,0001.71
2021-12-19 10:59:00,,0824.1,5.01,0.00,22.6,21.8,00.0,31.6,24.3,05.7,0000.0,0004.08,0002.10,0001.67
